Location: ????????
(55.7667°N, 37.4833°E)
Time: 04:26:01
(UTC+00:00)

Cosmos 2322 Rocket - Pass Details

Date: 19 May 2025
Orbit: 832 x 849 km, 71.0° (Epoch: 19 June)

Event Time Altitude Azimuth Distance (km) Brightness Sun altitude
Rises 19:22:12 0° 323° (NW) 3,422 7.5 -9.8°
Reaches altitude 10° 19:24:51 10° 331° (NNW) 2,481 6.3 -10.0°
Maximum altitude 19:30:09 38° 40° (NE) 1,264 3.3 -10.4°
Drops below altitude 10° 19:35:25 10° 108° (ESE) 2,460 4.2 -10.7°
Enters shadow 19:36:36 - 113° (ESE) 2,876 4.5 -10.8°
